This is the latest recevied weather packets stored in our database for station/object HA2SKA-1. If no packets are shown the sender has not sent any weather packets the latest 10 day(s).
| Time | Temp. | Humidity | Pressure | Rain* | Wind** | Luminosity | Snow |
|---|---|---|---|---|---|---|---|
| 1778028342 | 15° C | 68% | 1012.3 hPa | - | - | - | - |
| 1778027442 | 15.56° C | 68% | 1012.3 hPa | - | - | - | - |
| 1778026542 | 15° C | 68% | 1012.1 hPa | - | - | - | - |
| 1778025642 | 15.56° C | 66% | 1012.3 hPa | - | - | - | - |
| 1778024742 | 15.56° C | 64% | 1012.4 hPa | - | - | - | - |
| 1778023842 | 16.11° C | 63% | 1012.7 hPa | - | - | - | - |
| 1778022942 | 16.67° C | 61% | 1012.8 hPa | - | - | - | - |
| 1778022042 | 16.11° C | 63% | 1012.6 hPa | - | - | - | - |
| 1778021142 | 16.11° C | 61% | 1012.6 hPa | - | - | - | - |
| 1778020242 | 16.11° C | 61% | 1012.7 hPa | - | - | - | - |
| 1778019342 | 16.11° C | 60% | 1012.7 hPa | - | - | - | - |
| 1778018441 | 16.67° C | 60% | 1012.8 hPa | - | - | - | - |
| 1778017541 | 16.67° C | 57% | 1012.8 hPa | - | - | - | - |
| 1778016641 | 17.22° C | 56% | 1012.7 hPa | - | - | - | - |
| 1778015741 | 17.22° C | 56% | 1012.8 hPa | - | - | - | - |
| 1778014841 | 17.22° C | 55% | 1013.1 hPa | - | - | - | - |
| 1778013941 | 17.22° C | 54% | 1013.1 hPa | - | - | - | - |
| 1778013041 | 17.78° C | 54% | 1013 hPa | - | - | - | - |
| 1778012141 | 17.78° C | 53% | 1013 hPa | - | - | - | - |
| 1778011241 | 17.78° C | 53% | 1013 hPa | - | - | - | - |
| 1778010341 | 18.33° C | 52% | 1013.1 hPa | - | - | - | - |
| 1778009440 | 18.33° C | 51% | 1013 hPa | - | - | - | - |
| 1778008540 | 18.33° C | 51% | 1012.8 hPa | - | - | - | - |
| 1778007640 | 18.89° C | 52% | 1012.8 hPa | - | - | - | - |
| 1778006740 | 18.89° C | 52% | 1012.7 hPa | - | - | - | - |
* Rain since midnight (hover to see other rain measurements)
** Current wind speed in m/s (hover to see current wind gust speed)